Home > Time Zones > World Clock > Weather > Canada > Ajax > Past weeks

Flag for Canada Weather past 2 weeks in Ajax, Ontario, Canada

Now
68 °F

Passing clouds.


Feels Like: 68 °F
Forecast: 63 / 73 °F
Wind: 5 mph from North

Location: Toronto Buttonville

Current Time: Aug 21, 2014 at 11:08:13 PM

Latest Report: Aug 21, 2014 at 10:00 PM


Visibility: 15 mi

Pressure: 29.97 "Hg

Humidity: 83%

Dew point: 63 °F

Location of AjaxLocation

Historic Weather in Ajax — Graph

°F

Ajax temperature yesterday

Maximum temperature yesterday: 73 °F (at 2:00 PM)
Minimum temperature yesterday: 61 °F (at 6:00 AM)
Average temperature yesterday: 67 °F

Past Weeks' High & Low Weather Summary

 TemperatureHumidityPressure
High79 °F (Aug 9, 3:00 PM)100% (Aug 17, 6:00 AM)30.19 "Hg (Aug 17, 6:00 AM)
Low50 °F (Aug 19, 4:00 AM)38% (Aug 15, 5:00 PM)29.67 "Hg (Aug 12, 5:00 PM)
Average65 °F74%29.95 "Hg
* Reported Aug 6 9:00 PM — Aug 21 9:00 PM, Ajax, Weather by CustomWeather, © 2014

Note: Actual official high and low records may vary slightly from our data, if they occured in-between our weather recording intervals... More about our weather records

Advertising

Ajax weather history for previous 24 hours

 ConditionsComfort  
Time TempWeatherWind HumidityBarometerVisibility
9:00 PM
Aug 21
70 °FPassing clouds.5 mph83%29.97 "Hg15 mi
8:00 PM73 °FPassing clouds.7 mph74%29.96 "Hg15 mi
7:00 PM75 °FScattered clouds.9 mph74%29.95 "Hg15 mi
6:00 PM79 °FScattered clouds.8 mph65%29.93 "Hg15 mi
5:00 PM79 °FScattered clouds.6 mph61%29.93 "Hg15 mi
4:00 PM77 °FScattered clouds.8 mph69%29.93 "Hg15 mi
3:00 PM77 °FScattered clouds.6 mph69%29.94 "Hg15 mi
2:00 PM77 °FScattered showers. Partly sunny.5 mph69%29.94 "Hg14 mi
1:00 PM73 °FSprinkles. Partly sunny.6 mph78%29.96 "Hg9 mi
12:00 PM73 °FPartly sunny.5 mph74%29.96 "Hg9 mi
11:00 AM72 °FPartly sunny.3 mph83%29.96 "Hg9 mi
10:00 AM70 °FFog.5 mph88%29.96 "Hg2 mi
9:56 AMN/AFog.5 mphN/AN/A3 mi
9:00 AM68 °FFog.3 mph94%29.96 "Hg2 mi
8:00 AM68 °FFog.2 mph94%29.96 "Hg2 mi
7:00 AM66 °FFog.No wind100%29.94 "Hg1 mi
6:45 AMN/AFog.No windN/AN/A1 mi
6:00 AM66 °FFog.No wind94%29.93 "Hg3 mi
5:50 AMN/AFog.No windN/AN/A5 mi
5:00 AM66 °FLow clouds.No wind94%29.92 "Hg7 mi
4:00 AM66 °FLow clouds.No wind94%29.91 "Hg7 mi
3:00 AM64 °FLow clouds.No wind100%29.92 "Hg7 mi
2:00 AM66 °FLow clouds.5 mph94%29.92 "Hg7 mi
1:00 AM66 °FLow clouds.3 mph94%29.93 "Hg7 mi
12:00 AM66 °FLow clouds.7 mph100%29.93 "Hg8 mi
11:00 PM
Aug 20
66 °FSprinkles. Low clouds.5 mph100%29.91 "Hg8 mi
Weather by CustomWeather, © 2014

See weather overviewHow to use our weather pages